Wetterdaten: Woche 09.12.13 - 15.12.13 (KW50)
Datum Zeit Temp. Aussen +5cm Feuchte Auss Luftdruck Regen Sonnenschein Regendauer UV Solar Windben
09.12.2013 00:00 7,6 C 6,3 C 90 % 1025,5 hPa 0,0 l/m 0,00 h 0,00 h 0,0 UV-I 0 W/m 16,8 km/h (3 Bft)
09.12.2013 01:00 7,3 C 6,0 C 91 % 1025,5 hPa 0,0 l/m 0,00 h 0,00 h 0,0 UV-I 0 W/m 17,8 km/h (3 Bft)
09.12.2013 02:00 6,9 C 5,6 C 90 % 1025,5 hPa 0,0 l/m 0,00 h 0,00 h 0,0 UV-I 0 W/m 16,5 km/h (3 Bft)
09.12.2013 03:00 6,8 C 5,5 C 90 % 1025,4 hPa 0,0 l/m 0,00 h 0,00 h 0,0 UV-I 0 W/m 15,1 km/h (3 Bft)
09.12.2013 04:00 6,7 C 5,2 C 90 % 1025,1 hPa 0,0 l/m 0,00 h 0,00 h 0,0 UV-I 0 W/m 15,6 km/h (3 Bft)
09.12.2013 05:00 6,7 C 5,1 C 90 % 1025,3 hPa 0,0 l/m 0,00 h 0,00 h 0,0 UV-I 0 W/m 13,2 km/h (3 Bft)
09.12.2013 06:00 7,0 C 5,8 C 90 % 1025,8 hPa 0,0 l/m 0,00 h 0,00 h 0,0 UV-I 0 W/m 13,2 km/h (3 Bft)
09.12.2013 07:00 7,5 C 6,1 C 90 % 1026,2 hPa 0,0 l/m 0,00 h 0,00 h 0,0 UV-I 0 W/m 14,7 km/h (3 Bft)
09.12.2013 08:00 7,3 C 6,0 C 89 % 1026,8 hPa 0,0 l/m 0,00 h 0,00 h 0,0 UV-I 11 W/m 15,3 km/h (3 Bft)
09.12.2013 09:00 7,1 C 5,9 C 89 % 1027,7 hPa 0,0 l/m 0,00 h 0,00 h 0,0 UV-I 35 W/m 13,5 km/h (3 Bft)
09.12.2013 10:00 7,3 C 6,2 C 89 % 1028,3 hPa 0,0 l/m 0,00 h 0,00 h 0,0 UV-I 73 W/m 15,8 km/h (3 Bft)
09.12.2013 11:00 7,7 C 6,5 C 88 % 1028,6 hPa 0,0 l/m 0,40 h 0,00 h 0,0 UV-I 137 W/m 13,0 km/h (3 Bft)
09.12.2013 12:00 8,4 C 7,1 C 86 % 1028,7 hPa 0,0 l/m 0,80 h 0,00 h 0,0 UV-I 187 W/m 13,0 km/h (3 Bft)
09.12.2013 13:00 9,3 C 8,4 C 85 % 1028,7 hPa 0,0 l/m 0,93 h 0,00 h 0,0 UV-I 216 W/m 9,8 km/h (2 Bft)
09.12.2013 14:00 9,4 C 8,2 C 84 % 1029,1 hPa 0,0 l/m 0,63 h 0,00 h 0,0 UV-I 136 W/m 9,6 km/h (2 Bft)
09.12.2013 15:00 9,1 C 7,8 C 86 % 1029,5 hPa 0,0 l/m 0,10 h 0,00 h 0,0 UV-I 44 W/m 4,3 km/h (1 Bft)
09.12.2013 16:00 8,5 C 6,9 C 88 % 1030,0 hPa 0,0 l/m 0,00 h 0,00 h 0,0 UV-I 12 W/m 0,2 km/h (0 Bft)
09.12.2013 17:00 8,2 C 6,7 C 90 % 1030,2 hPa 0,0 l/m 0,00 h 0,00 h 0,0 UV-I 0 W/m 0,0 km/h (0 Bft)
09.12.2013 18:00 8,1 C 6,7 C 90 % 1030,7 hPa 0,0 l/m 0,00 h 0,00 h 0,0 UV-I 0 W/m 1,9 km/h (1 Bft)
09.12.2013 19:00 8,0 C 6,7 C 90 % 1031,2 hPa 0,0 l/m 0,00 h 0,00 h 0,0 UV-I 0 W/m 3,9 km/h (1 Bft)
09.12.2013 20:00 7,4 C 5,8 C 91 % 1031,8 hPa 0,0 l/m 0,00 h 0,00 h 0,0 UV-I 0 W/m 1,5 km/h (1 Bft)
09.12.2013 21:00 6,1 C 4,4 C 93 % 1032,1 hPa 0,0 l/m 0,00 h 0,00 h 0,0 UV-I 0 W/m 0,3 km/h (0 Bft)
09.12.2013 22:00 5,6 C 3,8 C 94 % 1032,4 hPa 0,0 l/m 0,00 h 0,00 h 0,0 UV-I 0 W/m 0,4 km/h (0 Bft)
09.12.2013 23:00 5,2 C 3,8 C 94 % 1032,8 hPa 0,0 l/m 0,00 h 0,00 h 0,0 UV-I 0 W/m 0,2 km/h (0 Bft)
10.12.2013 00:00 5,4 C 4,4 C 95 % 1033,1 hPa 0,0 l/m 0,00 h 0,00 h 0,0 UV-I 0 W/m 0,0 km/h (0 Bft)
10.12.2013 01:00 5,5 C 4,4 C 95 % 1033,3 hPa 0,0 l/m 0,00 h 0,00 h 0,0 UV-I 0 W/m 0,0 km/h (0 Bft)
10.12.2013 02:00 5,6 C 4,4 C 95 % 1033,5 hPa 0,0 l/m 0,00 h 0,00 h 0,0 UV-I 0 W/m 0,8 km/h (0 Bft)
10.12.2013 03:00 5,5 C 4,4 C 94 % 1033,7 hPa 0,0 l/m 0,00 h 0,00 h 0,0 UV-I 0 W/m 1,6 km/h (1 Bft)
10.12.2013 04:00 5,2 C 3,8 C 94 % 1033,7 hPa 0,0 l/m 0,00 h 0,00 h 0,0 UV-I 0 W/m 1,5 km/h (1 Bft)
10.12.2013 05:00 4,6 C 2,8 C 94 % 1033,7 hPa 0,0 l/m 0,00 h 0,00 h 0,0 UV-I 0 W/m 0,1 km/h (0 Bft)
10.12.2013 06:00 4,2 C 2,6 C 95 % 1033,7 hPa 0,0 l/m 0,00 h 0,00 h 0,0 UV-I 0 W/m 0,1 km/h (0 Bft)
10.12.2013 07:00 3,5 C 1,4 C 95 % 1033,7 hPa 0,0 l/m 0,00 h 0,00 h 0,0 UV-I 0 W/m 0,0 km/h (0 Bft)
10.12.2013 08:00 2,9 C 1,2 C 95 % 1033,9 hPa 0,0 l/m 0,00 h 0,00 h 0,0 UV-I 9 W/m 0,3 km/h (0 Bft)
10.12.2013 09:00 2,9 C 1,7 C 96 % 1034,2 hPa 0,0 l/m 0,00 h 0,00 h 0,0 UV-I 47 W/m 1,0 km/h (0 Bft)
10.12.2013 10:00 4,2 C 3,6 C 97 % 1034,5 hPa 0,0 l/m 0,93 h 0,00 h 0,0 UV-I 125 W/m 7,4 km/h (2 Bft)
10.12.2013 11:00 6,6 C 5,1 C 94 % 1034,6 hPa 0,0 l/m 1,00 h 0,00 h 0,0 UV-I 183 W/m 13,6 km/h (3 Bft)
10.12.2013 12:00 7,5 C 6,1 C 90 % 1034,2 hPa 0,0 l/m 0,97 h 0,00 h 0,0 UV-I 210 W/m 13,5 km/h (3 Bft)
10.12.2013 13:00 7,9 C 6,7 C 88 % 1033,9 hPa 0,0 l/m 1,00 h 0,00 h 0,0 UV-I 196 W/m 14,6 km/h (3 Bft)
10.12.2013 14:00 7,7 C 6,3 C 89 % 1033,9 hPa 0,0 l/m 0,87 h 0,00 h 0,0 UV-I 127 W/m 9,1 km/h (2 Bft)
10.12.2013 15:00 7,0 C 5,4 C 91 % 1033,8 hPa 0,0 l/m 0,00 h 0,00 h 0,0 UV-I 32 W/m 5,3 km/h (1 Bft)
10.12.2013 16:00 6,1 C 3,9 C 93 % 1034,1 hPa 0,0 l/m 0,00 h 0,00 h 0,0 UV-I 10 W/m 0,9 km/h (0 Bft)
10.12.2013 17:00 4,9 C 2,4 C 95 % 1034,2 hPa 0,0 l/m 0,00 h 0,00 h 0,0 UV-I 0 W/m 0,1 km/h (0 Bft)
10.12.2013 18:00 4,3 C 1,7 C 96 % 1034,2 hPa 0,0 l/m 0,00 h 0,00 h 0,0 UV-I 0 W/m 0,0 km/h (0 Bft)
10.12.2013 19:00 3,7 C 1,5 C 97 % 1034,2 hPa 0,0 l/m 0,00 h 0,00 h 0,0 UV-I 0 W/m 0,0 km/h (0 Bft)
10.12.2013 20:00 3,7 C 2,1 C 98 % 1034,1 hPa 0,0 l/m 0,00 h 0,00 h 0,0 UV-I 0 W/m 6,9 km/h (2 Bft)
10.12.2013 21:00 3,5 C 2,0 C 98 % 1034,1 hPa 0,0 l/m 0,00 h 0,00 h 0,0 UV-I 0 W/m 5,1 km/h (1 Bft)
10.12.2013 22:00 2,9 C 1,3 C 98 % 1034,2 hPa 0,0 l/m 0,00 h 0,00 h 0,0 UV-I 0 W/m 3,9 km/h (1 Bft)
10.12.2013 23:00 3,0 C 1,9 C 98 % 1034,2 hPa 0,0 l/m 0,00 h 0,00 h 0,0 UV-I 0 W/m 11,1 km/h (2 Bft)
11.12.2013 00:00 3,3 C 2,2 C 98 % 1034,1 hPa 0,0 l/m 0,00 h 0,00 h 0,0 UV-I 0 W/m 11,9 km/h (2 Bft)
11.12.2013 01:00 3,5 C 2,7 C 99 % 1033,8 hPa 0,0 l/m 0,00 h 0,00 h 0,0 UV-I 0 W/m 9,9 km/h (2 Bft)
11.12.2013 02:00 3,4 C 2,4 C 99 % 1033,9 hPa 0,0 l/m 0,00 h 0,00 h 0,0 UV-I 0 W/m 13,1 km/h (3 Bft)
11.12.2013 03:00 3,2 C 2,2 C 99 % 1034,1 hPa 0,0 l/m 0,00 h 0,00 h 0,0 UV-I 0 W/m 11,4 km/h (2 Bft)
11.12.2013 04:00 3,3 C 2,6 C 99 % 1033,9 hPa 0,0 l/m 0,00 h 0,03 h 0,0 UV-I 0 W/m 12,3 km/h (3 Bft)
11.12.2013 05:00 3,6 C 2,8 C 99 % 1033,7 hPa 0,0 l/m 0,00 h 0,00 h 0,0 UV-I 0 W/m 13,6 km/h (3 Bft)
11.12.2013 06:00 3,7 C 2,8 C 99 % 1033,6 hPa 0,0 l/m 0,00 h 0,00 h 0,0 UV-I 0 W/m 11,2 km/h (2 Bft)
11.12.2013 07:00 3,9 C 3,0 C 99 % 1033,5 hPa 0,0 l/m 0,00 h 0,00 h 0,0 UV-I 0 W/m 12,4 km/h (3 Bft)
11.12.2013 08:00 4,0 C 3,3 C 99 % 1033,7 hPa 0,0 l/m 0,00 h 0,00 h 0,0 UV-I 6 W/m 11,5 km/h (2 Bft)
11.12.2013 09:00 4,2 C 3,4 C 99 % 1033,9 hPa 0,0 l/m 0,00 h 0,00 h 0,0 UV-I 16 W/m 11,3 km/h (2 Bft)
11.12.2013 10:00 4,5 C 3,9 C 99 % 1034,0 hPa 0,0 l/m 0,00 h 0,00 h 0,0 UV-I 34 W/m 15,3 km/h (3 Bft)
11.12.2013 11:00 4,7 C 4,4 C 99 % 1033,8 hPa 0,0 l/m 0,00 h 0,00 h 0,0 UV-I 47 W/m 14,4 km/h (3 Bft)
11.12.2013 12:00 4,8 C 4,8 C 99 % 1033,2 hPa 0,0 l/m 0,00 h 0,00 h 0,0 UV-I 57 W/m 15,1 km/h (3 Bft)
11.12.2013 13:00 4,8 C 5,0 C 99 % 1032,7 hPa 0,0 l/m 0,00 h 0,00 h 0,0 UV-I 53 W/m 15,1 km/h (3 Bft)
11.12.2013 14:00 5,3 C 5,0 C 99 % 1032,2 hPa 0,0 l/m 0,00 h 0,00 h 0,0 UV-I 44 W/m 12,3 km/h (3 Bft)
11.12.2013 15:00 5,5 C 4,9 C 99 % 1032,0 hPa 0,0 l/m 0,00 h 0,00 h 0,0 UV-I 24 W/m 13,7 km/h (3 Bft)
11.12.2013 16:00 5,4 C 4,4 C 99 % 1032,0 hPa 0,0 l/m 0,00 h 0,00 h 0,0 UV-I 7 W/m 9,3 km/h (2 Bft)
11.12.2013 17:00 5,4 C 4,4 C 99 % 1032,1 hPa 0,0 l/m 0,00 h 0,00 h 0,0 UV-I 0 W/m 12,9 km/h (3 Bft)
11.12.2013 18:00 5,4 C 4,4 C 98 % 1032,0 hPa 0,0 l/m 0,00 h 0,00 h 0,0 UV-I 0 W/m 14,6 km/h (3 Bft)
11.12.2013 19:00 5,3 C 4,4 C 98 % 1031,9 hPa 0,0 l/m 0,00 h 0,00 h 0,0 UV-I 0 W/m 11,4 km/h (2 Bft)
11.12.2013 20:00 5,2 C 4,4 C 98 % 1031,9 hPa 0,0 l/m 0,00 h 0,00 h 0,0 UV-I 0 W/m 13,5 km/h (3 Bft)
11.12.2013 21:00 5,1 C 4,1 C 98 % 1031,7 hPa 0,0 l/m 0,00 h 0,00 h 0,0 UV-I 0 W/m 15,1 km/h (3 Bft)
11.12.2013 22:00 4,8 C 3,9 C 98 % 1031,6 hPa 0,0 l/m 0,00 h 0,00 h 0,0 UV-I 0 W/m 14,6 km/h (3 Bft)
11.12.2013 23:00 4,6 C 3,9 C 98 % 1031,3 hPa 0,0 l/m 0,00 h 0,00 h 0,0 UV-I 0 W/m 14,4 km/h (3 Bft)
12.12.2013 00:00 4,4 C 3,5 C 98 % 1031,0 hPa 0,0 l/m 0,00 h 0,00 h 0,0 UV-I 0 W/m 17,6 km/h (3 Bft)
12.12.2013 01:00 4,4 C 3,5 C 98 % 1030,8 hPa 0,0 l/m 0,00 h 0,00 h 0,0 UV-I 0 W/m 10,9 km/h (2 Bft)
12.12.2013 02:00 4,3 C 3,3 C 98 % 1030,5 hPa 0,2 l/m 0,00 h 0,00 h 0,0 UV-I 0 W/m 14,0 km/h (3 Bft)
12.12.2013 03:00 4,1 C 3,3 C 98 % 1030,3 hPa 0,0 l/m 0,00 h 0,00 h 0,0 UV-I 0 W/m 13,3 km/h (3 Bft)
12.12.2013 04:00 3,8 C 3,3 C 98 % 1030,1 hPa 0,0 l/m 0,00 h 0,00 h 0,0 UV-I 0 W/m 15,0 km/h (3 Bft)
12.12.2013 05:00 3,7 C 2,8 C 98 % 1030,0 hPa 0,0 l/m 0,00 h 0,00 h 0,0 UV-I 0 W/m 14,6 km/h (3 Bft)
12.12.2013 06:00 3,7 C 2,8 C 98 % 1029,7 hPa 0,0 l/m 0,00 h 0,00 h 0,0 UV-I 0 W/m 18,7 km/h (3 Bft)
12.12.2013 07:00 3,5 C 2,8 C 98 % 1029,7 hPa 0,0 l/m 0,00 h 0,00 h 0,0 UV-I 0 W/m 15,9 km/h (3 Bft)
12.12.2013 08:00 3,4 C 2,8 C 97 % 1029,6 hPa 0,0 l/m 0,00 h 0,00 h 0,0 UV-I 7 W/m 14,9 km/h (3 Bft)
12.12.2013 09:00 3,4 C 2,8 C 97 % 1029,6 hPa 0,0 l/m 0,00 h 0,00 h 0,0 UV-I 28 W/m 17,8 km/h (3 Bft)
12.12.2013 10:00 3,6 C 2,9 C 96 % 1029,5 hPa 0,0 l/m 0,13 h 0,00 h 0,0 UV-I 97 W/m 22,6 km/h (4 Bft)
12.12.2013 11:00 4,5 C 3,5 C 92 % 1028,9 hPa 0,0 l/m 0,60 h 0,00 h 0,0 UV-I 160 W/m 19,2 km/h (3 Bft)
12.12.2013 12:00 4,7 C 4,2 C 91 % 1028,6 hPa 0,0 l/m 0,10 h 0,00 h 0,0 UV-I 125 W/m 16,2 km/h (3 Bft)
12.12.2013 13:00 5,7 C 4,7 C 88 % 1028,0 hPa 0,0 l/m 0,90 h 0,00 h 0,0 UV-I 196 W/m 15,4 km/h (3 Bft)
12.12.2013 14:00 5,9 C 4,6 C 87 % 1027,5 hPa 0,0 l/m 0,87 h 0,00 h 0,0 UV-I 130 W/m 12,5 km/h (3 Bft)
12.12.2013 15:00 5,4 C 3,8 C 88 % 1027,4 hPa 0,0 l/m 0,00 h 0,00 h 0,0 UV-I 25 W/m 8,7 km/h (2 Bft)
12.12.2013 16:00 4,1 C 2,5 C 91 % 1027,2 hPa 0,0 l/m 0,00 h 0,00 h 0,0 UV-I 7 W/m 9,9 km/h (2 Bft)
12.12.2013 17:00 3,1 C 1,7 C 92 % 1027,2 hPa 0,0 l/m 0,00 h 0,00 h 0,0 UV-I 0 W/m 12,5 km/h (3 Bft)
12.12.2013 18:00 2,5 C 1,1 C 93 % 1027,2 hPa 0,0 l/m 0,00 h 0,00 h 0,0 UV-I 0 W/m 16,6 km/h (3 Bft)
12.12.2013 19:00 1,7 C 0,7 C 94 % 1027,3 hPa 0,0 l/m 0,00 h 0,00 h 0,0 UV-I 0 W/m 13,9 km/h (3 Bft)
12.12.2013 20:00 1,2 C 0,0 C 94 % 1027,1 hPa 0,0 l/m 0,00 h 0,00 h 0,0 UV-I 0 W/m 14,7 km/h (3 Bft)
12.12.2013 21:00 0,8 C -0,3 C 95 % 1027,0 hPa 0,0 l/m 0,00 h 0,00 h 0,0 UV-I 0 W/m 14,4 km/h (3 Bft)
12.12.2013 22:00 0,8 C -0,6 C 95 % 1027,0 hPa 0,0 l/m 0,00 h 0,00 h 0,0 UV-I 0 W/m 16,3 km/h (3 Bft)
12.12.2013 23:00 0,7 C -0,6 C 95 % 1026,8 hPa 0,0 l/m 0,00 h 0,00 h 0,0 UV-I 0 W/m 18,3 km/h (3 Bft)
13.12.2013 00:00 0,6 C -0,6 C 95 % 1026,3 hPa 0,0 l/m 0,00 h 0,00 h 0,0 UV-I 0 W/m 17,8 km/h (3 Bft)
13.12.2013 01:00 0,5 C -0,7 C 95 % 1025,9 hPa 0,0 l/m 0,00 h 0,00 h 0,0 UV-I 0 W/m 12,9 km/h (3 Bft)
13.12.2013 02:00 0,2 C -1,1 C 95 % 1025,8 hPa 0,0 l/m 0,00 h 0,00 h 0,0 UV-I 0 W/m 10,8 km/h (2 Bft)
13.12.2013 03:00 0,1 C -1,1 C 95 % 1025,7 hPa 0,0 l/m 0,00 h 0,00 h 0,0 UV-I 0 W/m 14,1 km/h (3 Bft)
13.12.2013 04:00 0,0 C -1,2 C 95 % 1025,5 hPa 0,0 l/m 0,00 h 0,00 h 0,0 UV-I 0 W/m 11,3 km/h (2 Bft)
13.12.2013 05:00 -0,2 C -1,6 C 96 % 1025,1 hPa 0,0 l/m 0,00 h 0,00 h 0,0 UV-I 0 W/m 14,2 km/h (3 Bft)
13.12.2013 06:00 -0,2 C -1,4 C 96 % 1025,1 hPa 0,0 l/m 0,00 h 0,00 h 0,0 UV-I 0 W/m 13,4 km/h (3 Bft)
13.12.2013 07:00 -0,3 C -1,7 C 96 % 1025,0 hPa 0,0 l/m 0,00 h 0,00 h 0,0 UV-I 0 W/m 11,0 km/h (2 Bft)
13.12.2013 08:00 -0,4 C -1,7 C 96 % 1025,1 hPa 0,0 l/m 0,00 h 0,00 h 0,0 UV-I 10 W/m 12,2 km/h (2 Bft)
13.12.2013 09:00 -0,3 C -1,1 C 96 % 1025,1 hPa 0,0 l/m 0,00 h 0,00 h 0,0 UV-I 43 W/m 14,3 km/h (3 Bft)
13.12.2013 10:00 0,6 C -0,1 C 96 % 1025,1 hPa 0,0 l/m 0,67 h 0,00 h 0,0 UV-I 115 W/m 21,6 km/h (4 Bft)
13.12.2013 11:00 1,9 C 0,9 C 94 % 1024,7 hPa 0,0 l/m 1,00 h 0,00 h 0,0 UV-I 178 W/m 19,8 km/h (4 Bft)
13.12.2013 12:00 2,8 C 1,8 C 92 % 1024,2 hPa 0,0 l/m 1,00 h 0,00 h 0,0 UV-I 202 W/m 19,3 km/h (3 Bft)
13.12.2013 13:00 3,5 C 2,5 C 91 % 1023,6 hPa 0,0 l/m 1,00 h 0,00 h 0,0 UV-I 186 W/m 18,5 km/h (3 Bft)
13.12.2013 14:00 3,5 C 2,3 C 90 % 1023,0 hPa 0,0 l/m 0,83 h 0,00 h 0,0 UV-I 124 W/m 17,5 km/h (3 Bft)
13.12.2013 15:00 3,3 C 2,0 C 90 % 1022,8 hPa 0,0 l/m 0,00 h 0,00 h 0,0 UV-I 29 W/m 17,8 km/h (3 Bft)
13.12.2013 16:00 2,5 C 1,1 C 91 % 1022,5 hPa 0,0 l/m 0,00 h 0,00 h 0,0 UV-I 9 W/m 15,4 km/h (3 Bft)
13.12.2013 17:00 1,8 C 0,5 C 93 % 1022,6 hPa 0,0 l/m 0,00 h 0,00 h 0,0 UV-I 0 W/m 17,6 km/h (3 Bft)
13.12.2013 18:00 1,3 C 0,0 C 94 % 1022,6 hPa 0,0 l/m 0,00 h 0,00 h 0,0 UV-I 0 W/m 17,9 km/h (3 Bft)
13.12.2013 19:00 0,8 C -0,5 C 95 % 1022,6 hPa 0,0 l/m 0,00 h 0,00 h 0,0 UV-I 0 W/m 17,1 km/h (3 Bft)
13.12.2013 20:00 0,5 C -0,6 C 96 % 1022,6 hPa 0,0 l/m 0,00 h 0,00 h 0,0 UV-I 0 W/m 15,0 km/h (3 Bft)
13.12.2013 21:00 0,3 C -0,9 C 96 % 1022,8 hPa 0,0 l/m 0,00 h 0,00 h 0,0 UV-I 0 W/m 14,6 km/h (3 Bft)
13.12.2013 22:00 0,1 C -1,1 C 97 % 1022,7 hPa 0,0 l/m 0,00 h 0,00 h 0,0 UV-I 0 W/m 11,9 km/h (2 Bft)
13.12.2013 23:00 0,1 C -1,1 C 97 % 1022,3 hPa 0,0 l/m 0,00 h 0,00 h 0,0 UV-I 0 W/m 17,2 km/h (3 Bft)
14.12.2013 00:00 0,1 C -1,1 C 97 % 1022,3 hPa 0,0 l/m 0,00 h 0,00 h 0,0 UV-I 0 W/m 18,7 km/h (3 Bft)
14.12.2013 01:00 -0,3 C -1,6 C 97 % 1022,6 hPa 0,0 l/m 0,00 h 0,00 h 0,0 UV-I 0 W/m 8,1 km/h (2 Bft)
14.12.2013 02:00 -0,4 C -1,3 C 97 % 1022,5 hPa 0,0 l/m 0,00 h 0,00 h 0,0 UV-I 0 W/m 9,0 km/h (2 Bft)
14.12.2013 03:00 0,1 C -0,6 C 97 % 1022,2 hPa 0,0 l/m 0,00 h 0,00 h 0,0 UV-I 0 W/m 9,9 km/h (2 Bft)
14.12.2013 04:00 0,5 C 0,0 C 97 % 1021,8 hPa 0,0 l/m 0,00 h 0,00 h 0,0 UV-I 0 W/m 14,9 km/h (3 Bft)
14.12.2013 05:00 0,8 C 0,0 C 96 % 1022,2 hPa 1,0 l/m 0,00 h 0,93 h 0,0 UV-I 0 W/m 10,0 km/h (2 Bft)
14.12.2013 06:00 1,0 C 0,3 C 96 % 1022,7 hPa 1,0 l/m 0,00 h 1,00 h 0,0 UV-I 0 W/m 4,5 km/h (1 Bft)
14.12.2013 07:00 1,4 C 0,7 C 97 % 1023,1 hPa 0,4 l/m 0,00 h 1,00 h 0,0 UV-I 0 W/m 2,4 km/h (1 Bft)
14.12.2013 08:00 1,9 C 1,1 C 97 % 1023,7 hPa 0,4 l/m 0,00 h 0,77 h 0,0 UV-I 0 W/m 1,9 km/h (1 Bft)
14.12.2013 09:00 2,4 C 1,8 C 98 % 1024,5 hPa 0,0 l/m 0,00 h 0,07 h 0,0 UV-I 8 W/m 1,3 km/h (1 Bft)
14.12.2013 10:00 4,4 C 3,7 C 98 % 1025,2 hPa 0,0 l/m 0,00 h 0,30 h 0,0 UV-I 28 W/m 4,7 km/h (1 Bft)
14.12.2013 11:00 6,0 C 4,7 C 99 % 1025,6 hPa 0,0 l/m 0,00 h 0,00 h 0,0 UV-I 49 W/m 7,2 km/h (2 Bft)
14.12.2013 12:00 6,6 C 5,6 C 99 % 1026,0 hPa 0,0 l/m 0,07 h 0,00 h 0,0 UV-I 86 W/m 6,8 km/h (2 Bft)
14.12.2013 13:00 6,8 C 5,6 C 97 % 1026,5 hPa 0,0 l/m 0,00 h 0,00 h 0,0 UV-I 68 W/m 6,9 km/h (2 Bft)
14.12.2013 14:00 6,7 C 5,1 C 95 % 1027,4 hPa 0,0 l/m 0,00 h 0,00 h 0,0 UV-I 33 W/m 7,1 km/h (2 Bft)
14.12.2013 15:00 6,5 C 4,5 C 93 % 1028,1 hPa 0,0 l/m 0,00 h 0,00 h 0,0 UV-I 23 W/m 3,6 km/h (1 Bft)
14.12.2013 16:00 5,8 C 3,3 C 93 % 1028,6 hPa 0,0 l/m 0,00 h 0,00 h 0,0 UV-I 9 W/m 0,9 km/h (0 Bft)
14.12.2013 17:00 5,0 C 2,8 C 93 % 1028,8 hPa 0,0 l/m 0,00 h 0,00 h 0,0 UV-I 0 W/m 3,1 km/h (1 Bft)
14.12.2013 18:00 4,4 C 2,3 C 95 % 1029,1 hPa 0,0 l/m 0,00 h 0,00 h 0,0 UV-I 0 W/m 1,7 km/h (1 Bft)
14.12.2013 19:00 3,7 C 1,7 C 95 % 1028,5 hPa 0,0 l/m 0,00 h 0,00 h 0,0 UV-I 0 W/m 6,5 km/h (2 Bft)
14.12.2013 20:00 3,6 C 1,8 C 95 % 1028,5 hPa 0,0 l/m 0,00 h 0,00 h 0,0 UV-I 0 W/m 6,8 km/h (2 Bft)
14.12.2013 21:00 3,4 C 1,6 C 94 % 1028,6 hPa 0,0 l/m 0,00 h 0,00 h 0,0 UV-I 0 W/m 3,1 km/h (1 Bft)
14.12.2013 22:00 3,5 C 2,0 C 94 % 1028,0 hPa 0,0 l/m 0,00 h 0,00 h 0,0 UV-I 0 W/m 9,9 km/h (2 Bft)
14.12.2013 23:00 3,6 C 1,9 C 92 % 1027,5 hPa 0,0 l/m 0,00 h 0,00 h 0,0 UV-I 0 W/m 14,9 km/h (3 Bft)
15.12.2013 00:00 3,8 C 2,6 C 92 % 1026,5 hPa 0,0 l/m 0,00 h 0,00 h 0,0 UV-I 0 W/m 18,9 km/h (3 Bft)
15.12.2013 01:00 4,6 C 3,3 C 92 % 1025,4 hPa 0,0 l/m 0,00 h 0,00 h 0,0 UV-I 0 W/m 15,3 km/h (3 Bft)
15.12.2013 02:00 4,8 C 3,3 C 92 % 1025,7 hPa 0,0 l/m 0,00 h 0,00 h 0,0 UV-I 0 W/m 2,1 km/h (1 Bft)
15.12.2013 03:00 4,8 C 3,3 C 92 % 1025,9 hPa 0,0 l/m 0,00 h 0,00 h 0,0 UV-I 0 W/m 1,9 km/h (1 Bft)
15.12.2013 04:00 5,2 C 4,1 C 92 % 1025,8 hPa 0,0 l/m 0,00 h 0,00 h 0,0 UV-I 0 W/m 12,0 km/h (2 Bft)
15.12.2013 05:00 7,2 C 5,7 C 84 % 1024,9 hPa 0,2 l/m 0,00 h 0,00 h 0,0 UV-I 0 W/m 28,7 km/h (4 Bft)
15.12.2013 06:00 7,6 C 5,1 C 80 % 1025,2 hPa 0,0 l/m 0,00 h 0,27 h 0,0 UV-I 0 W/m 22,9 km/h (4 Bft)
15.12.2013 07:00 7,4 C 5,1 C 79 % 1025,4 hPa 0,0 l/m 0,00 h 0,03 h 0,0 UV-I 0 W/m 21,8 km/h (4 Bft)
15.12.2013 08:00 7,6 C 5,9 C 79 % 1026,1 hPa 0,0 l/m 0,00 h 0,03 h 0,0 UV-I 0 W/m 18,0 km/h (3 Bft)
15.12.2013 09:00 7,2 C 5,4 C 85 % 1027,0 hPa 0,0 l/m 0,00 h 0,07 h 0,0 UV-I 15 W/m 15,0 km/h (3 Bft)
15.12.2013 10:00 7,5 C 6,2 C 87 % 1027,7 hPa 0,0 l/m 0,00 h 0,00 h 0,0 UV-I 47 W/m 12,0 km/h (2 Bft)
15.12.2013 11:00 7,7 C 6,7 C 86 % 1027,8 hPa 0,0 l/m 0,00 h 0,00 h 0,0 UV-I 57 W/m 10,3 km/h (2 Bft)
15.12.2013 12:00 7,8 C 6,8 C 87 % 1027,5 hPa 0,0 l/m 0,00 h 0,00 h 0,0 UV-I 73 W/m 11,6 km/h (2 Bft)
15.12.2013 13:00 7,9 C 7,0 C 89 % 1027,1 hPa 0,0 l/m 0,00 h 0,00 h 0,0 UV-I 70 W/m 13,0 km/h (3 Bft)
15.12.2013 14:00 8,2 C 7,1 C 87 % 1026,6 hPa 0,0 l/m 0,00 h 0,00 h 0,0 UV-I 74 W/m 8,6 km/h (2 Bft)
15.12.2013 15:00 8,3 C 7,1 C 88 % 1026,2 hPa 0,0 l/m 0,00 h 0,00 h 0,0 UV-I 32 W/m 4,1 km/h (1 Bft)
15.12.2013 16:00 8,4 C 6,7 C 89 % 1026,3 hPa 0,0 l/m 0,00 h 0,00 h 0,0 UV-I 7 W/m 1,7 km/h (1 Bft)
15.12.2013 17:00 8,4 C 6,9 C 89 % 1026,2 hPa 0,0 l/m 0,00 h 0,00 h 0,0 UV-I 0 W/m 10,5 km/h (2 Bft)
15.12.2013 18:00 8,4 C 6,5 C 84 % 1025,9 hPa 0,0 l/m 0,00 h 0,00 h 0,0 UV-I 0 W/m 14,8 km/h (3 Bft)
15.12.2013 19:00 7,0 C 4,5 C 83 % 1025,9 hPa 0,0 l/m 0,00 h 0,00 h 0,0 UV-I 0 W/m 12,9 km/h (3 Bft)
15.12.2013 20:00 5,9 C 3,9 C 84 % 1025,9 hPa 0,0 l/m 0,00 h 0,00 h 0,0 UV-I 0 W/m 14,1 km/h (3 Bft)
15.12.2013 21:00 5,4 C 3,5 C 85 % 1025,9 hPa 0,0 l/m 0,00 h 0,00 h 0,0 UV-I 0 W/m 12,3 km/h (3 Bft)
15.12.2013 22:00 5,0 C 3,0 C 84 % 1025,8 hPa 0,0 l/m 0,00 h 0,00 h 0,0 UV-I 0 W/m 11,7 km/h (2 Bft)
15.12.2013 23:00 4,6 C 2,8 C 84 % 1025,4 hPa 0,0 l/m 0,00 h 0,00 h 0,0 UV-I 0 W/m 11,6 km/h (2 Bft)
Min-Datum _ 13.12.13 13.12.13 15.12.13 14.12.13 - - - - - 09.12.13
_ Min-Zeit 08:30 04:54 07:30 03:52 - - - - - 06:02
Minimum _ -0,5 C -1,7 C 78 % 1021,7 hPa - - - - - 0,0 km/h (0 Bft)
Max-Datum _ 09.12.13 09.12.13 11.12.13 10.12.13 14.12.13 09.12.13 11.12.13 09.12.13 09.12.13 15.12.13
_ Max-Zeit 13:46 13:38 14:08 10:42 05:10 11:02 04:20 00:00 13:12 08:02
Maximum _ 9,7 C 8,9 C 100 % 1034,7 hPa 1,0 l/m 0,03 h 0,03 h 0,0 UV-I 258 W/m 38,6 km/h
W-SW (5 Bft)
Durchschnitt _ 4,5 C 3,2 C 93 % 1028,6 hPa #3,2 l/m #14:48 h #4:30 h 0,0 UV-I 73 W/m 11,0 km/h (2 Bft)
© 2013 W. Hausmann